Liberia, Costa Rica

8:11 AM CST on December 05, 2016 (GMT -0600)
Liberia

Weather History for 78774 - October, 2012

Change the Weather History Date:

Tuesday, October 9, 2012

  Actual Average Record
Temperature  
Mean Temperature 79 °F -  
Max Temperature 85 °F - - ()
Min Temperature 73 °F - - ()
Cooling Degree Days 14    
Growing Degree Days 29 (Base 50)    
Moisture  
Dew Point 74 °F    
Average Humidity 85    
Maximum Humidity 94    
Minimum Humidity 70    
Precipitation  
Precipitation 0.04 in - - ()
Sea Level Pressure  
Sea Level Pressure 29.91 in    
Wind  
Wind Speed 3 mph ()    
Max Wind Speed 7 mph    
Max Gust Speed -    
Visibility 7.5 miles    
Events Rain    
T = Trace of Precipitation, MM = Missing Value Source: Averaged Metar Reports

Daily Weather History Graph

Daily Weather History Graph

Search for Another Location

Airport or City:

Trip Planner

Search our weather history database for the weather conditions in past years. The results will help you decide how hot, cold, wet, or windy it might be!

Date:

Astronomy

Oct. 09, 2012 Rise Set
Actual Time 5:30 AM CST 5:27 PM CST
Civil Twilight 5:09 AM CST 5:48 PM CST
Nautical Twilight 4:45 AM CST 6:13 PM CST
Astronomical Twilight 4:20 AM CST 6:37 PM CST
Moon 12:09 AM CST (10/9) 12:57 PM CST (10/9)
Length of Visible Light 12h 39m
Length of Day
11h 56m
Last Quarter, 36% of the Moon is Illuminated
Oct 9
Last Quarter
Oct 15
New
Oct 21
First Quarter
Oct 29
Full
Nov 6
Last Quarter

Hourly Weather History & Observations

Time (CST) Temp. Heat Index Dew Point Humidity Pressure Visibility Wind Dir Wind Speed Gust Speed Precip Events Conditions
6:00 AM 74 °F - 73 °F 94% 29.94 in 12 mi Calm Calm - -   Overcast
6:00 AM 73.4 °F - 71.6 °F 94% 29.92 in 6.2 mi Calm Calm - N/A   Mostly Cloudy
7:00 AM 80.6 °F 85.4 °F 73.4 °F 79% 29.94 in 6.2 mi Calm Calm - N/A   Scattered Clouds
8:00 AM 80.6 °F 85.4 °F 73.4 °F 79% 29.96 in 6.2 mi SE 3.5 mph - N/A   Scattered Clouds
9:00 AM 79 °F - 74 °F 79% 29.97 in 12 mi SSE 3.5 mph - -   Overcast
9:00 AM 80.6 °F 85.4 °F 73.4 °F 79% 29.96 in 6.2 mi SSE 3.5 mph - N/A   Mostly Cloudy
10:00 AM 84.2 °F 90.9 °F 73.4 °F 70% 29.95 in 6.2 mi South 3.5 mph - N/A   Mostly Cloudy
11:00 AM 82.4 °F 88.2 °F 73.4 °F 74% 29.94 in 6.2 mi South 4.6 mph - N/A   Mostly Cloudy
12:00 PM 80 °F - 75 °F 82% 29.92 in 9 mi South 6.9 mph - - Rain Light Rain
12:00 PM - - - N/A% 29.91 in 6.2 mi South 6.9 mph - N/A   Drizzle
1:00 PM 78.8 °F - 75.2 °F 89% 29.89 in 6.2 mi WSW 5.8 mph - N/A   Drizzle
2:00 PM 78.8 °F - 75.2 °F 89% 29.87 in 6.2 mi SSW 4.6 mph - N/A Rain Light Rain
3:00 PM 79 °F - 76 °F 87% 29.87 in 12 mi SW 4.6 mph - - Rain Light Drizzle
3:00 PM 78.8 °F - 75.2 °F 89% 29.85 in 6.2 mi SW 4.6 mph - N/A   Drizzle
4:00 PM 80.6 °F 86.2 °F 75.2 °F 84% 29.85 in 6.2 mi SSE 3.5 mph - N/A   Mostly Cloudy
5:00 PM 78.8 °F - 75.2 °F 89% 29.86 in 6.2 mi WSW 4.6 mph - N/A   Mostly Cloudy
6:00 PM 78 °F - 75 °F 87% 29.89 in 12 mi SW 3.5 mph - -   Overcast
6:00 PM 77.0 °F - 75.2 °F 94% 29.88 in 6.2 mi SW 3.5 mph - N/A   Mostly Cloudy
7:00 PM 77.0 °F - 73.4 °F 89% 29.91 in 6.2 mi SSE 3.5 mph - N/A   Mostly Cloudy
8:00 PM 75.2 °F - 73.4 °F 94% 29.93 in 6.2 mi SE 3.5 mph - N/A   Mostly Cloudy